Weather History for CYVQ - January, 2013

Change the Weather History Date:

Tuesday, January 29, 2013

  Actual Average Record
Temperature  
Mean Temperature -34 °F -  
Max Temperature -22 °F -7 °F 26 °F (2007)
Min Temperature -45 °F -23 °F -45 °F (2008)
Degree Days  
Heating Degree Days 98    
Moisture  
Dew Point -41 °F    
Average Humidity 64    
Maximum Humidity 69    
Minimum Humidity 47    
Precipitation  
Precipitation 0.00 in 0.02 in - ()
Sea Level Pressure  
Sea Level Pressure 30.53 in    
Wind  
Wind Speed 5 mph ()    
Max Wind Speed 12 mph    
Max Gust Speed -    
Visibility 19.9 miles    
Events Snow    
Averages and records for this station are not official NWS values.
T = Trace of Precipitation, MM = Missing Value Source: Averaged Metar Reports

Daily Weather History Graph

Daily Weather History Graph

Search for Another Location

Airport or City:

Trip Planner

Search our weather history database for the weather conditions in past years. The results will help you decide how hot, cold, wet, or windy it might be!

Date:

Astronomy

Jan. 29, 2013 Rise Set
Actual Time 10:25 AM MST 4:56 PM MST
Civil Twilight 9:23 AM MST 5:58 PM MST
Nautical Twilight 8:20 AM MST 7:01 PM MST
Astronomical Twilight 7:22 AM MST 7:59 PM MST
Moon 9:39 PM MST (1/29) 9:57 AM MST (1/29)
Length of Visible Light 8h 35m
Length of Day
6h 31m
Waning Gibbous, 93% of the Moon is Illuminated
Jan 29
Waning Gibbous
Feb 3
Last Quarter
Feb 10
New
Feb 17
First Quarter
Feb 25
Full

Hourly Weather History & Observations

Time (MST) Temp. Windchill Dew Point Humidity Pressure Visibility Wind Dir Wind Speed Gust Speed Precip Events Conditions
12:00 AM -22.0 °F -44.7 °F -29.2 °F 69% 30.71 in 20.0 mi West 11.5 mph - N/A   Ice Crystals
1:00 AM -23.8 °F -43.2 °F -31.0 °F 69% 30.71 in 20.0 mi WSW 8.1 mph - N/A   Ice Crystals
2:00 AM -27.4 °F - -34.6 °F 69% 30.71 in 20.0 mi Calm Calm - N/A   Ice Crystals
3:00 AM -31.0 °F - -38.2 °F 68% 30.71 in 20.0 mi Calm Calm - N/A   Ice Crystals
4:00 AM -32.8 °F -45.3 °F -40.0 °F 68% 30.69 in 20.0 mi SE 3.5 mph - N/A   Ice Crystals
5:00 AM -38 °F - -45 °F 48% 30.69 in 19 mi East 4.6 mph - - Snow Snow
5:00 AM -38.2 °F -54.5 °F -45.4 °F 67% 30.69 in 20.0 mi East 4.6 mph - N/A   Ice Crystals
6:00 AM -36.4 °F -56.8 °F -45.4 °F 61% 30.67 in 20.0 mi East 6.9 mph - N/A   Ice Crystals
7:00 AM -41.8 °F -58.7 °F -49.0 °F 67% 30.64 in 20.0 mi East 4.6 mph - N/A   Ice Crystals
8:00 AM -40.0 °F -53.5 °F -47.2 °F 67% 30.61 in 20.0 mi ENE 3.5 mph - N/A   Ice Crystals
9:00 AM -40.0 °F -56.6 °F -49.0 °F 60% 30.58 in 20.0 mi SE 4.6 mph - N/A   Ice Crystals
10:00 AM -36.4 °F -54.8 °F -43.6 °F 67% 30.55 in 30.0 mi ESE 5.8 mph - N/A   Ice Crystals
11:00 AM -38 °F - -46 °F 47% 30.54 in 28 mi East 5.8 mph - - Snow Snow
11:00 AM -38.2 °F -56.9 °F -45.4 °F 67% 30.53 in 30.0 mi East 5.8 mph - N/A   Ice Crystals
12:00 PM -34.6 °F -59.2 °F -41.8 °F 68% 30.50 in 30.0 mi SE 10.4 mph - N/A   Ice Crystals
1:00 PM -31.0 °F -54.7 °F -38.2 °F 68% 30.46 in 30.0 mi ESE 10.4 mph - N/A   Ice Crystals
2:00 PM -27.4 °F -49.0 °F -36.4 °F 62% 30.44 in 30.0 mi ESE 9.2 mph - N/A   Ice Crystals
3:00 PM -25.6 °F -46.8 °F -32.8 °F 69% 30.41 in 30.0 mi East 9.2 mph - N/A   Partly Cloudy
4:00 PM -25.6 °F -46.8 °F -32.8 °F 69% 30.41 in 30.0 mi East 9.2 mph - N/A   Partly Cloudy
5:00 PM -27 °F - -35 °F 48% 30.40 in 28 mi ESE 9.2 mph - -   Partly Cloudy
5:00 PM -27.4 °F -47.6 °F -34.6 °F 69% 30.40 in 30.0 mi East 8.1 mph - N/A   Partly Cloudy
6:00 PM -32.8 °F -50.5 °F -40.0 °F 68% 30.40 in 30.0 mi SSE 5.8 mph - N/A   Partly Cloudy
7:00 PM -38.2 °F - -45.4 °F 67% 30.40 in 30.0 mi Calm Calm - N/A   Partly Cloudy
8:00 PM -40.0 °F - -47.2 °F 67% 30.40 in 30.0 mi Calm Calm - N/A   Partly Cloudy
9:00 PM -40.0 °F - -47.2 °F 67% 30.40 in 20.0 mi Calm Calm - N/A   Partly Cloudy
10:00 PM -40.0 °F - -47.2 °F 67% 30.39 in 20.0 mi Calm Calm - N/A   Clear
11:00 PM -38 °F - -45 °F 48% 30.38 in 19 mi Calm Calm - -  
11:00 PM -38.2 °F - -45.4 °F 67% 30.38 in 20.0 mi Calm Calm - N/A   Clear